timestamp,surface_pressure_avg,surface_temp_avg,battery_voltage,lat,long
2021-10-13 00:09:01+00:00,238.7264,11.4,12.73,47.84626,-54.09684
2021-10-13 00:19:01+00:00,238.0264,11.4,12.73,47.84626,-54.09684
2021-10-13 00:29:01+00:00,235.0481,11.4,12.73,47.84626,-54.09684
2021-10-13 00:39:01+00:00,236.1531,11.4,12.73,47.84626,-54.09684
2021-10-13 00:49:01+00:00,240.0797,11.4,12.73,47.84626,-54.09684
2021-10-13 00:59:01+00:00,239.9932,11.4,12.73,47.84626,-54.09684
2021-10-13 01:09:01+00:00,239.183,11.4,12.73,47.84626,-54.09684
2021-10-13 01:19:01+00:00,242.4281,11.4,12.73,47.84626,-54.09684
2021-10-13 01:29:01+00:00,246.7198,11.32,12.73,47.84626,-54.09684
2021-10-13 01:39:01+00:00,249.9364,11.36,12.73,47.84626,-54.09684
2021-10-13 01:49:01+00:00,255.3597,11.39,12.73,47.84626,-54.09684
2021-10-13 01:59:01+00:00,262.9147,11.4,12.73,47.84626,-54.09684
2021-10-13 02:09:01+00:00,269.9597,11.4,12.73,47.84626,-54.09684
2021-10-13 02:19:01+00:00,275.6514,11.3,12.73,47.84626,-54.09684
2021-10-13 02:29:01+00:00,282.8197,11.4,12.73,47.84626,-54.09684
2021-10-13 02:39:01+00:00,288.988,11.36,12.73,47.84626,-54.09684
2021-10-13 02:49:01+00:00,293.9614,11.3,12.73,47.84626,-54.09684
2021-10-13 02:59:01+00:00,299.8363,11.3,12.73,47.84626,-54.09684
2021-10-13 03:09:01+00:00,305.3164,11.29,12.73,47.84626,-54.09684
2021-10-13 03:19:01+00:00,305.973,11.24,12.73,47.84626,-54.09684
2021-10-13 03:29:01+00:00,307.6814,11.22,12.73,47.84626,-54.09684
2021-10-13 03:39:01+00:00,313.7146,11.2,12.73,47.84626,-54.09684
2021-10-13 03:49:01+00:00,316.9998,11.2,12.73,47.84626,-54.09684
2021-10-13 03:59:01+00:00,315.5247,11.2,12.73,47.84626,-54.09684
2021-10-13 04:09:01+00:00,317.6446,11.2,12.73,47.84626,-54.09684
2021-10-13 04:19:00+00:00,320.2313,11.2,12.65,47.84626,-54.09684
2021-10-13 04:29:00+00:00,318.778,11.2,12.65,47.84626,-54.09684
2021-10-13 04:39:00+00:00,318.6929,11.2,12.65,47.84626,-54.09684
2021-10-13 04:49:00+00:00,321.2913,11.2,12.65,47.84626,-54.09684
2021-10-13 04:59:00+00:00,325.2764,11.2,12.65,47.84626,-54.09684
2021-10-13 05:09:00+00:00,326.8547,11.2,12.65,47.84626,-54.09684
2021-10-13 05:19:01+00:00,328.8047,11.2,12.65,47.84626,-54.09684
2021-10-13 05:29:01+00:00,330.788,11.2,12.65,47.84626,-54.09684
2021-10-13 05:39:01+00:00,329.8813,11.2,12.65,47.84626,-54.09684
2021-10-13 05:49:01+00:00,327.6763,11.2,12.65,47.84626,-54.09684
2021-10-13 05:59:01+00:00,328.1412,11.2,12.65,47.84626,-54.09684
2021-10-13 06:09:01+00:00,327.2713,11.2,12.65,47.84626,-54.09684
2021-10-13 06:19:01+00:00,321.903,11.2,12.65,47.84626,-54.09684
2021-10-13 06:29:01+00:00,318.3747,11.2,12.65,47.84626,-54.09684
2021-10-13 06:39:01+00:00,316.0529,11.2,12.65,47.84626,-54.09684
2021-10-13 06:49:01+00:00,310.5313,11.2,12.65,47.84626,-54.09684
2021-10-13 06:59:01+00:00,303.3898,11.2,12.65,47.84626,-54.09684
2021-10-13 07:09:01+00:00,299.4146,11.2,12.65,47.84626,-54.09684
2021-10-13 07:19:01+00:00,291.8814,11.2,12.65,47.84626,-54.09684
2021-10-13 07:29:01+00:00,281.0664,11.19,12.65,47.84626,-54.09684
2021-10-13 07:39:01+00:00,273.2997,11.16,12.65,47.84626,-54.09684
2021-10-13 07:49:01+00:00,266.9597,11.1,12.65,47.84626,-54.09684
2021-10-13 07:59:01+00:00,259.6331,11.11,12.65,47.84626,-54.09684
2021-10-13 08:09:01+00:00,252.9897,11.16,12.65,47.84626,-54.09684
2021-10-13 08:19:01+00:00,249.6115,11.2,12.65,47.84626,-54.09684
2021-10-13 08:29:01+00:00,244.6447,11.2,12.65,47.84626,-54.09684
2021-10-13 08:39:01+00:00,237.8297,11.1,12.65,47.84626,-54.09684
2021-10-13 08:49:01+00:00,234.7064,11.07,12.65,47.84626,-54.09684
2021-10-13 08:59:01+00:00,235.1397,11.08,12.65,47.84626,-54.09684
2021-10-13 09:09:01+00:00,232.1398,11.1,12.65,47.84626,-54.09684
2021-10-13 09:19:01+00:00,228.2231,11.09,12.57,47.84626,-54.09684
2021-10-13 09:29:01+00:00,227.5614,11.09,12.57,47.84626,-54.09684
2021-10-13 09:39:01+00:00,227.7081,11.08,12.57,47.84626,-54.09684
2021-10-13 09:49:01+00:00,224.9348,11.04,12.57,47.84626,-54.09684
2021-10-13 09:59:01+00:00,223.7948,11.02,12.57,47.84626,-54.09684
2021-10-13 10:09:01+00:00,224.6165,11.01,12.57,47.84626,-54.09684
2021-10-13 10:19:01+00:00,223.7798,11.0,12.57,47.84626,-54.09684
2021-10-13 10:29:01+00:00,224.2365,10.98,12.57,47.84626,-54.09684
2021-10-13 10:39:01+00:00,228.1764,10.97,12.57,47.84626,-54.09684
2021-10-13 10:49:01+00:00,232.1598,10.9,12.57,47.84626,-54.09684
2021-10-13 10:59:01+00:00,233.1697,10.8,12.57,47.84626,-54.09684
2021-10-13 11:09:01+00:00,235.2614,10.7,12.57,47.84626,-54.09684
2021-10-13 11:19:01+00:00,239.1114,10.7,13.05,47.84626,-54.09684
2021-10-13 11:29:01+00:00,240.9414,10.7,13.05,47.84626,-54.09684
2021-10-13 11:39:01+00:00,240.0697,10.7,13.05,47.84626,-54.09684
2021-10-13 11:49:01+00:00,241.1797,10.7,13.05,47.84626,-54.09684
2021-10-13 11:59:01+00:00,243.9797,10.7,13.05,47.84626,-54.09684
2021-10-13 12:09:01+00:00,244.3964,10.7,13.05,47.84626,-54.09684
2021-10-13 12:19:00+00:00,244.5014,10.7,14.08,47.84626,-54.09684
2021-10-13 12:29:00+00:00,246.9914,10.72,14.08,47.84626,-54.09684
2021-10-13 12:39:00+00:00,248.4198,10.74,14.08,47.84626,-54.09684
2021-10-13 12:49:00+00:00,249.2364,10.77,14.08,47.84626,-54.09684
2021-10-13 12:59:00+00:00,250.7047,10.79,14.08,47.84626,-54.09684
2021-10-13 13:09:00+00:00,253.3597,10.79,14.08,47.84626,-54.09684
2021-10-13 13:19:01+00:00,253.2298,10.8,14.64,47.84626,-54.09684
2021-10-13 13:29:01+00:00,255.3464,10.8,14.64,47.84626,-54.09684
2021-10-13 13:39:01+00:00,260.7414,10.8,14.64,47.84626,-54.09684
2021-10-13 13:49:01+00:00,266.4348,10.8,14.64,47.84626,-54.09684
2021-10-13 13:59:01+00:00,270.1747,10.8,14.64,47.84626,-54.09684
2021-10-13 14:09:01+00:00,276.4464,10.8,14.64,47.84626,-54.09684
2021-10-13 14:19:01+00:00,284.1864,10.64,14.64,47.84626,-54.09684
2021-10-13 14:29:01+00:00,291.8763,10.66,14.64,47.84626,-54.09684
2021-10-13 14:39:01+00:00,298.5096,10.69,14.64,47.84626,-54.09684
2021-10-13 14:49:01+00:00,306.3915,10.7,14.64,47.84626,-54.09684
2021-10-13 14:59:01+00:00,312.7264,10.7,14.64,47.84626,-54.09684
2021-10-13 15:09:01+00:00,319.9147,10.72,14.64,47.84626,-54.09684
2021-10-13 15:19:00+00:00,326.0696,10.8,14.48,47.84626,-54.09684
2021-10-13 15:29:00+00:00,330.6647,10.89,14.48,47.84626,-54.09684
2021-10-13 15:39:00+00:00,334.7163,10.93,14.48,47.84626,-54.09684
2021-10-13 15:49:00+00:00,338.4996,10.99,14.48,47.84626,-54.09684
2021-10-13 15:59:00+00:00,343.1379,10.97,14.48,47.84626,-54.09684
2021-10-13 16:09:00+00:00,346.0629,10.99,14.48,47.84626,-54.09684
2021-10-13 16:19:01+00:00,346.6246,10.99,14.16,47.84626,-54.09684
2021-10-13 16:29:01+00:00,347.2012,10.99,14.16,47.84626,-54.09684
2021-10-13 16:39:01+00:00,349.5145,10.99,14.16,47.84626,-54.09684
2021-10-13 16:49:01+00:00,352.6929,11.0,14.16,47.84626,-54.09684
2021-10-13 16:59:01+00:00,352.3829,11.0,14.16,47.84626,-54.09684
2021-10-13 17:09:01+00:00,353.6246,11.0,14.16,47.84626,-54.09684
2021-10-13 17:19:01+00:00,359.3329,11.0,14.16,47.84626,-54.09684
2021-10-13 17:29:01+00:00,361.1279,11.0,14.16,47.84626,-54.09684
2021-10-13 17:39:01+00:00,359.1995,11.05,14.16,47.84626,-54.09684
2021-10-13 17:49:01+00:00,360.9962,11.09,14.16,47.84626,-54.09684
2021-10-13 17:59:01+00:00,363.5764,11.09,14.16,47.84626,-54.09684
2021-10-13 18:09:01+00:00,358.8713,11.1,14.16,47.84626,-54.09684
2021-10-13 18:19:01+00:00,355.9296,11.1,14.0,47.84626,-54.09684
2021-10-13 18:29:01+00:00,356.4413,11.1,14.0,47.84626,-54.09684
2021-10-13 18:39:01+00:00,353.8296,11.09,14.0,47.84626,-54.09684
2021-10-13 18:49:01+00:00,347.3663,11.08,14.0,47.84626,-54.09684
2021-10-13 18:59:01+00:00,343.3762,11.05,14.0,47.84626,-54.09684
2021-10-13 19:09:01+00:00,341.6679,11.05,14.0,47.84626,-54.09684
2021-10-13 19:19:01+00:00,335.9463,11.06,13.68,47.84626,-54.09684
2021-10-13 19:29:01+00:00,327.2879,11.08,13.68,47.84626,-54.09684
2021-10-13 19:39:01+00:00,323.3763,11.0,13.68,47.84626,-54.09684
2021-10-13 19:49:01+00:00,319.5463,11.0,13.68,47.84626,-54.09684
2021-10-13 19:59:01+00:00,310.6946,11.0,13.68,47.84626,-54.09684
2021-10-13 20:09:01+00:00,301.023,11.0,13.68,47.84626,-54.09684
2021-10-13 20:19:01+00:00,296.4697,11.0,13.37,47.84626,-54.09684
2021-10-13 20:29:01+00:00,291.4864,11.0,13.37,47.84626,-54.09684
2021-10-13 20:39:01+00:00,283.7397,11.0,13.37,47.84626,-54.09684
2021-10-13 20:49:01+00:00,277.6747,10.94,13.37,47.84626,-54.09684
2021-10-13 20:59:01+00:00,273.3763,10.96,13.37,47.84626,-54.09684
2021-10-13 21:09:01+00:00,269.4964,10.98,13.37,47.84626,-54.09684
2021-10-13 21:19:01+00:00,265.1381,10.98,13.05,47.84626,-54.09684
2021-10-13 21:29:01+00:00,262.9897,10.98,13.05,47.84626,-54.09684
2021-10-13 21:39:01+00:00,259.8931,10.9,13.05,47.84626,-54.09684
2021-10-13 21:49:01+00:00,255.1748,10.8,13.05,47.84626,-54.09684
2021-10-13 21:59:01+00:00,252.4431,10.78,13.05,47.84626,-54.09684
2021-10-13 22:09:01+00:00,251.9864,10.7,13.05,47.84626,-54.09684
2021-10-13 22:19:00+00:00,250.7647,10.7,12.73,47.84626,-54.09684
2021-10-13 22:29:00+00:00,246.7381,10.7,12.73,47.84626,-54.09684
2021-10-13 22:39:00+00:00,246.5781,10.73,12.73,47.84626,-54.09684
2021-10-13 22:49:00+00:00,248.0281,10.8,12.73,47.84626,-54.09684
2021-10-13 22:59:00+00:00,248.0382,10.8,12.73,47.84626,-54.09684
2021-10-13 23:09:00+00:00,247.4882,10.8,12.73,47.84626,-54.09684
2021-10-13 23:19:01+00:00,248.8981,10.79,12.73,47.84626,-54.09684
2021-10-13 23:29:01+00:00,248.7964,10.78,12.73,47.84626,-54.09684
2021-10-13 23:39:01+00:00,247.8047,10.8,12.73,47.84626,-54.09684
2021-10-13 23:49:01+00:00,247.3514,10.8,12.73,47.84626,-54.09684
2021-10-13 23:59:01+00:00,247.6514,10.8,12.73,47.84626,-54.09684
